User: anonymous   Login
Location: Makanda
(37.6176°N, 89.2090°W)
Time: 09:11:28
(UTC+00:00)
Language:

Cosmos 1975 - Orbit

View from above orbital plane
View from above orbital plane
View from above satellite
View from above satellite

Ground track
Ground track

The orbit data is extracted from the following two-line orbital elements,

1 19573U 88093A   19315.85404603 +.00000181 +00000-0 +10767-4 0  9997
2 19573 082.5219 215.8888 0013902 181.1397 178.9800 15.04764580670634
Epoch (UTC): 11 November 2019 20:29:49
Eccentricity: 0.0013902
inclination: 82.5219°
perigee height: 542 km
apogee height: 562 km
right ascension of ascending node: 215.8888°
argument of perigee: 181.1397°
revolutions per day: 15.04764580
mean anomaly at epoch: 178.9800°
orbit number at epoch: 67063

The dashed part of the orbit path shows where the satellite is in the earth's shadow,  

DLR